Terminal Aerodrome Forecast
Issued by NWS Duluth, MN

Home | Current Version | Previous Version | Text Only | Print | Product List | Glossary On
Versions: 1 2 3 4 5 6 7 8 9 10 11 12 13 14 15 16 17 18 19 20 21 22 23 24 25 26 27 28
000
FTUS43 KDLH 310700 AAA
TAFDLH
TAF AMD
KDLH 310703Z 3107/0106 34018G25KT P6SM SCT028 BKN040
     FM310900 36014G21KT P6SM SCT015
     FM311600 01010G17KT P6SM FEW025
     FM312200 33004KT P6SM SKC=

USA.gov is the U.S. government's official web portal to all federal, state and local government web resources and services.